| time (UTC) | temp C | wind direction | speed KPH | gust KPH | rain 1hr cm | rain 24hr cm | rain mn cm | humidity % | barometer mb |
| 20260506103503 | 13 | 248 | 4.8 | 9.7 | 0.00 | 0.00 | 0.00 | 83 | 1018.9 |
| 20260506100503 | 13 | 270 | 3.2 | 4.8 | 0.00 | 0.00 | 0.00 | 82 | 1018.7 |
| 20260506093503 | 13 | 315 | 4.8 | 6.4 | 0.00 | 0.03 | 0.00 | 81 | 1018.9 |
| 20260506090503 | 13 | 315 | 3.2 | 3.2 | 0.00 | 0.03 | 0.00 | 81 | 1018.7 |
| 20260506083503 | 13 | 0 | 0.0 | 1.6 | 0.00 | 0.05 | 0.00 | 81 | 1018.7 |
| 20260506080511 | 13 | 292 | 4.8 | 9.7 | 0.00 | 0.10 | 0.00 | 81 | 1018.8 |
| 20260506073503 | 13 | 270 | 3.2 | 4.8 | 0.00 | 0.18 | 0.00 | 82 | 1018.5 |
| 20260506070504 | 13 | 292 | 3.2 | 6.4 | 0.00 | 0.20 | 0.00 | 82 | 1018.4 |
| 20260506060609 | 14 | 292 | 4.8 | 6.4 | 0.00 | 0.23 | 0.20 | 81 | 1018.1 |
| 20260506060503 | 14 | 292 | 4.8 | 6.4 | 0.00 | 0.23 | 0.20 | 81 | 1018.1 |
| 20260506050503 | 14 | 248 | 8.0 | 14.5 | 0.00 | 0.28 | 0.20 | 81 | 1017.8 |
| 20260506043511 | 14 | 270 | 3.2 | 6.4 | 0.00 | 0.33 | 0.20 | 82 | 1017.6 |
| 20260506040509 | 14 | 270 | 8.0 | 12.9 | 0.00 | 0.33 | 0.20 | 80 | 1017.0 |
| 20260506033503 | 14 | 248 | 4.8 | 9.7 | 0.00 | 0.33 | 0.20 | 79 | 1016.5 |
| 20260506030503 | 15 | 225 | 8.0 | 14.5 | 0.00 | 0.33 | 0.20 | 77 | 1016.4 |
| 20260506023503 | 15 | 225 | 12.9 | 16.1 | 0.00 | 0.33 | 0.20 | 76 | 1016.2 |
| 20260506020503 | 16 | 270 | 6.4 | 11.3 | 0.00 | 0.33 | 0.20 | 73 | 1015.8 |
| 20260506013504 | 16 | 270 | 6.4 | 16.1 | 0.00 | 0.33 | 0.20 | 71 | 1015.9 |
| 20260506010503 | 17 | 270 | 9.7 | 14.5 | 0.00 | 0.33 | 0.20 | 69 | 1015.8 |
| 20260506003503 | 17 | 270 | 12.9 | 17.7 | 0.00 | 0.33 | 0.20 | 69 | 1015.7 |
| 20260506000503 | 17 | 248 | 16.1 | 25.7 | 0.00 | 0.33 | 0.20 | 71 | 1015.6 |
| 20260505233503 | 17 | 292 | 9.7 | 17.7 | 0.00 | 0.33 | 0.20 | 69 | 1015.7 |
| 20260505230503 | 18 | 270 | 11.3 | 19.3 | 0.00 | 0.33 | 0.20 | 66 | 1015.5 |
| 20260505223503 | 17 | 292 | 11.3 | 19.3 | 0.00 | 0.33 | 0.20 | 69 | 1015.4 |
| 20260505220503 | 17 | 292 | 14.5 | 19.3 | 0.00 | 0.33 | 0.20 | 70 | 1015.6 |
| 20260505213503 | 17 | 225 | 14.5 | 20.9 | 0.00 | 0.33 | 0.20 | 69 | 1015.8 |
| 20260505210503 | 17 | 225 | 9.7 | 16.1 | 0.00 | 0.33 | 0.20 | 69 | 1015.9 |
| 20260505203513 | 17 | 270 | 11.3 | 17.7 | 0.00 | 0.33 | 0.20 | 68 | 1015.8 |
| 20260505200503 | 18 | 270 | 12.9 | 19.3 | 0.00 | 0.33 | 0.20 | 69 | 1015.9 |
| 20260505193511 | 17 | 248 | 8.0 | 17.7 | 0.00 | 0.33 | 0.20 | 71 | 1015.9 |
| 20260505190503 | 17 | 270 | 17.7 | 24.1 | 0.00 | 0.33 | 0.20 | 71 | 1015.9 |
| 20260505183503 | 16 | 292 | 11.3 | 17.7 | 0.00 | 0.33 | 0.20 | 73 | 1015.9 |
| 20260505180503 | 16 | 225 | 6.4 | 16.1 | 0.00 | 0.33 | 0.20 | 77 | 1015.8 |
| 20260505173503 | 15 | 292 | 9.7 | 14.5 | 0.00 | 0.33 | 0.20 | 81 | 1015.6 |
| 20260505170504 | 14 | 292 | 6.4 | 16.1 | 0.00 | 0.33 | 0.20 | 84 | 1015.4 |
| 20260505163503 | 14 | 292 | 8.0 | 16.1 | 0.00 | 0.33 | 0.20 | 85 | 1015.5 |
| 20260505160503 | 13 | 270 | 8.0 | 14.5 | 0.00 | 0.33 | 0.20 | 86 | 1015.3 |
| 20260505150503 | 13 | 248 | 4.8 | 12.9 | 0.00 | 0.33 | 0.20 | 87 | 1014.9 |
| 20260505140503 | 13 | 248 | 3.2 | 6.4 | 0.00 | 0.33 | 0.20 | 86 | 1014.6 |
| 20260505123503 | 12 | 270 | 3.2 | 9.7 | 0.00 | 0.33 | 0.20 | 86 | 1014.3 |
| 20260505120510 | 12 | 248 | 4.8 | 6.4 | 0.00 | 0.33 | 0.20 | 86 | 1014.1 |
| 20260505113503 | 12 | 248 | 6.4 | 8.0 | 0.00 | 0.33 | 0.20 | 86 | 1014.4 |
| 20260505110503 | 11 | 292 | 1.6 | 3.2 | 0.00 | 0.33 | 0.20 | 86 | 1014.3 |